Year,Month,Day,Hour,Minute,Value (Times are PST for temperature in C)
2012,06,01,00,00,11.70
2012,06,01,00,01,11.70
2012,06,01,00,02,11.70
2012,06,01,00,03,11.70
2012,06,01,00,04,11.70
2012,06,01,00,05,11.70
2012,06,01,00,06,11.70
2012,06,01,00,07,11.70
2012,06,01,00,08,11.80
2012,06,01,00,09,11.80
2012,06,01,00,10,11.80
2012,06,01,00,11,11.80
2012,06,01,00,12,11.80
2012,06,01,00,13,11.80
2012,06,01,00,14,11.80
2012,06,01,00,15,11.80
2012,06,01,00,16,11.80
2012,06,01,00,17,11.80
2012,06,01,00,18,11.80
2012,06,01,00,19,11.80
2012,06,01,00,20,11.80
2012,06,01,00,21,11.80
2012,06,01,00,22,11.80
2012,06,01,00,23,11.80
2012,06,01,00,24,11.80
2012,06,01,00,25,11.80
2012,06,01,00,26,11.80
2012,06,01,00,27,11.80
2012,06,01,00,28,11.80
2012,06,01,00,29,11.80
2012,06,01,00,30,11.80
2012,06,01,00,31,11.80
2012,06,01,00,32,11.80
2012,06,01,00,33,11.80
2012,06,01,00,34,11.80
2012,06,01,00,35,11.80
2012,06,01,00,36,11.80
2012,06,01,00,37,11.80
2012,06,01,00,38,11.80
2012,06,01,00,39,11.80
2012,06,01,00,40,11.80
2012,06,01,00,41,11.80
2012,06,01,00,42,11.80
2012,06,01,00,43,11.80
2012,06,01,00,44,11.80
2012,06,01,00,45,11.80
2012,06,01,00,46,11.80
2012,06,01,00,47,11.80
2012,06,01,00,48,11.80
2012,06,01,00,49,11.80
2012,06,01,00,50,11.80
2012,06,01,00,51,11.80
2012,06,01,00,52,11.80
2012,06,01,00,53,11.80
2012,06,01,00,54,11.80
2012,06,01,00,55,11.80
2012,06,01,00,56,11.80
2012,06,01,00,57,11.80
2012,06,01,00,58,11.70
2012,06,01,00,59,11.70
2012,06,01,01,00,11.70
2012,06,01,01,01,11.70
2012,06,01,01,02,11.70
2012,06,01,01,03,11.60
2012,06,01,01,04,11.60
2012,06,01,01,05,11.60
2012,06,01,01,06,11.60
2012,06,01,01,07,11.60
2012,06,01,01,08,11.60
2012,06,01,01,09,11.60
2012,06,01,01,10,11.60
2012,06,01,01,11,11.60
2012,06,01,01,12,11.60
2012,06,01,01,13,11.60
2012,06,01,01,14,11.60
2012,06,01,01,15,11.60
2012,06,01,01,16,11.60
2012,06,01,01,17,11.60
2012,06,01,01,18,11.60
2012,06,01,01,19,11.60
2012,06,01,01,20,11.60
2012,06,01,01,21,11.60
2012,06,01,01,22,11.60
2012,06,01,01,23,11.60
2012,06,01,01,24,11.60
2012,06,01,01,25,11.60
2012,06,01,01,26,11.60
2012,06,01,01,27,11.60
2012,06,01,01,28,11.60
2012,06,01,01,29,11.60
2012,06,01,01,30,11.60
2012,06,01,01,31,11.60
2012,06,01,01,32,11.70
2012,06,01,01,33,11.70
2012,06,01,01,34,11.70
2012,06,01,01,35,11.70
2012,06,01,01,36,11.60
2012,06,01,01,37,11.60
2012,06,01,01,38,11.60
2012,06,01,01,39,11.60
2012,06,01,01,40,11.60
2012,06,01,01,41,11.60
2012,06,01,01,42,11.60
2012,06,01,01,43,11.60
2012,06,01,01,44,11.60
2012,06,01,01,45,11.60
2012,06,01,01,46,11.60
2012,06,01,01,47,11.60
2012,06,01,01,48,11.60
2012,06,01,01,49,11.60
2012,06,01,01,50,11.60
2012,06,01,01,51,11.60
2012,06,01,01,52,11.60
2012,06,01,01,53,11.60
2012,06,01,01,54,11.60
2012,06,01,01,55,11.60
2012,06,01,01,56,11.60
2012,06,01,01,57,11.60
2012,06,01,01,58,11.60
2012,06,01,01,59,11.70
2012,06,01,02,00,11.70
2012,06,01,02,01,11.70
2012,06,01,02,02,11.70
2012,06,01,02,03,11.70
2012,06,01,02,04,11.70
2012,06,01,02,05,11.70
2012,06,01,02,06,11.70
2012,06,01,02,07,11.70
2012,06,01,02,08,11.80
2012,06,01,02,09,11.80
2012,06,01,02,10,11.80
2012,06,01,02,11,11.80
2012,06,01,02,12,11.80
2012,06,01,02,13,11.80
2012,06,01,02,14,11.80
2012,06,01,02,15,11.80
2012,06,01,02,16,11.80
2012,06,01,02,17,11.80
2012,06,01,02,18,11.80
2012,06,01,02,19,11.80
2012,06,01,02,20,11.80
2012,06,01,02,21,11.80
2012,06,01,02,22,11.80
2012,06,01,02,23,11.80
2012,06,01,02,24,11.80
2012,06,01,02,25,11.80
2012,06,01,02,26,11.80
2012,06,01,02,27,11.80
2012,06,01,02,28,11.80
2012,06,01,02,29,11.80
2012,06,01,02,30,11.80
2012,06,01,02,31,11.80
2012,06,01,02,32,11.80
2012,06,01,02,33,11.80
2012,06,01,02,34,11.80
2012,06,01,02,35,11.80
2012,06,01,02,36,11.80
2012,06,01,02,37,11.80
2012,06,01,02,38,11.80
2012,06,01,02,39,11.80
2012,06,01,02,40,11.80
2012,06,01,02,41,11.80
2012,06,01,02,42,11.80
2012,06,01,02,43,11.80
2012,06,01,02,44,11.80
2012,06,01,02,45,11.80
2012,06,01,02,46,11.80
2012,06,01,02,47,11.80
2012,06,01,02,48,11.80
2012,06,01,02,49,11.80
2012,06,01,02,50,11.80
2012,06,01,02,51,11.80
2012,06,01,02,52,11.90
2012,06,01,02,53,11.90
2012,06,01,02,54,11.90
2012,06,01,02,55,11.90
2012,06,01,02,56,11.90
2012,06,01,02,57,11.90
2012,06,01,02,58,11.90
2012,06,01,02,59,11.90
2012,06,01,03,00,11.90
2012,06,01,03,01,11.90
2012,06,01,03,02,12.00
2012,06,01,03,03,12.00
2012,06,01,03,04,12.00
2012,06,01,03,05,12.00
2012,06,01,03,06,12.00
2012,06,01,03,07,12.00
2012,06,01,03,08,12.00
2012,06,01,03,09,12.00
2012,06,01,03,10,12.00
2012,06,01,03,11,12.00
2012,06,01,03,12,12.00
2012,06,01,03,13,12.10
2012,06,01,03,14,12.10
2012,06,01,03,15,12.10
2012,06,01,03,16,12.10
2012,06,01,03,17,12.10
2012,06,01,03,18,12.10
2012,06,01,03,19,12.10
2012,06,01,03,20,12.10
2012,06,01,03,21,12.10
2012,06,01,03,22,12.20
2012,06,01,03,23,12.20
2012,06,01,03,24,12.20
2012,06,01,03,25,12.20
2012,06,01,03,26,12.20
2012,06,01,03,27,12.20
2012,06,01,03,28,12.20
2012,06,01,03,29,12.20
2012,06,01,03,30,12.20
2012,06,01,03,31,12.20
2012,06,01,03,32,12.20
2012,06,01,03,33,12.20
2012,06,01,03,34,12.20
2012,06,01,03,35,12.20
2012,06,01,03,36,12.30
2012,06,01,03,37,12.30
2012,06,01,03,38,12.30
2012,06,01,03,39,12.30
2012,06,01,03,40,12.30
2012,06,01,03,41,12.30
2012,06,01,03,42,12.30
2012,06,01,03,43,12.30
2012,06,01,03,44,12.30
2012,06,01,03,45,12.30
2012,06,01,03,46,12.30
2012,06,01,03,47,12.30
2012,06,01,03,48,12.30
2012,06,01,03,49,12.30
2012,06,01,03,50,12.30
2012,06,01,03,51,12.30
2012,06,01,03,52,12.40
2012,06,01,03,53,12.40
2012,06,01,03,54,12.40
2012,06,01,03,55,12.40
2012,06,01,03,56,12.40
2012,06,01,03,57,12.40
2012,06,01,03,58,12.40
2012,06,01,03,59,12.40
2012,06,01,04,00,12.40
2012,06,01,04,01,12.30
2012,06,01,04,02,12.30
2012,06,01,04,03,12.30
2012,06,01,04,04,12.30
2012,06,01,04,05,12.30
2012,06,01,04,06,12.30
2012,06,01,04,07,12.30
2012,06,01,04,08,12.30
2012,06,01,04,09,12.30
2012,06,01,04,10,12.40
2012,06,01,04,11,12.40
2012,06,01,04,12,12.40
2012,06,01,04,13,12.40
2012,06,01,04,14,12.40
2012,06,01,04,15,12.40
2012,06,01,04,16,12.40
2012,06,01,04,17,12.40
2012,06,01,04,18,12.40
2012,06,01,04,19,12.40
2012,06,01,04,20,12.50
2012,06,01,04,21,12.50
2012,06,01,04,22,12.50
2012,06,01,04,23,12.50
2012,06,01,04,24,12.50
2012,06,01,04,25,12.50
2012,06,01,04,26,12.50
2012,06,01,04,27,12.50
2012,06,01,04,28,12.50
2012,06,01,04,29,12.50
2012,06,01,04,30,12.50
2012,06,01,04,31,12.50
2012,06,01,04,32,12.50
2012,06,01,04,33,12.50
2012,06,01,04,34,12.50
2012,06,01,04,35,12.50
2012,06,01,04,36,12.50
2012,06,01,04,37,12.50
2012,06,01,04,38,12.50
2012,06,01,04,39,12.50
2012,06,01,04,40,12.50
2012,06,01,04,41,12.50
2012,06,01,04,42,12.50
2012,06,01,04,43,12.50
2012,06,01,04,44,12.50
2012,06,01,04,45,12.50
2012,06,01,04,46,12.50
2012,06,01,04,47,12.50
2012,06,01,04,48,12.50
2012,06,01,04,49,12.50
2012,06,01,04,50,12.50
2012,06,01,04,51,12.50
2012,06,01,04,52,12.50
2012,06,01,04,53,12.50
2012,06,01,04,54,12.50
2012,06,01,04,55,12.50
2012,06,01,04,56,12.50
2012,06,01,04,57,12.50
2012,06,01,04,58,12.50
2012,06,01,04,59,12.50
2012,06,01,05,00,12.50
2012,06,01,05,01,12.50
2012,06,01,05,02,12.50
2012,06,01,05,03,12.50
2012,06,01,05,04,12.50
2012,06,01,05,05,12.50
2012,06,01,05,06,12.50
2012,06,01,05,07,12.50
2012,06,01,05,08,12.50
2012,06,01,05,09,12.50
2012,06,01,05,10,12.50
2012,06,01,05,11,12.50
2012,06,01,05,12,12.50
2012,06,01,05,13,12.50
2012,06,01,05,14,12.50
2012,06,01,05,15,12.50
2012,06,01,05,16,12.50
2012,06,01,05,17,12.50
2012,06,01,05,18,12.50
2012,06,01,05,19,12.50
2012,06,01,05,20,12.50
2012,06,01,05,21,12.50
2012,06,01,05,22,12.50
2012,06,01,05,23,12.50
2012,06,01,05,24,12.50
2012,06,01,05,25,12.50
2012,06,01,05,26,12.50
2012,06,01,05,27,12.50
2012,06,01,05,28,12.50
2012,06,01,05,29,12.50
2012,06,01,05,30,12.50
2012,06,01,05,31,12.50
2012,06,01,05,32,12.50
2012,06,01,05,33,12.50
2012,06,01,05,34,12.50
2012,06,01,05,35,12.50
2012,06,01,05,36,12.50
2012,06,01,05,37,12.50
2012,06,01,05,38,12.50
2012,06,01,05,39,12.50
2012,06,01,05,40,12.50
2012,06,01,05,41,12.50
2012,06,01,05,42,12.50
2012,06,01,05,43,12.50
2012,06,01,05,44,12.50
2012,06,01,05,45,12.50
2012,06,01,05,46,12.50
2012,06,01,05,47,12.50
2012,06,01,05,48,12.50
2012,06,01,05,49,12.50
2012,06,01,05,50,12.50
2012,06,01,05,51,12.50
2012,06,01,05,52,12.50
2012,06,01,05,53,12.50
2012,06,01,05,54,12.50
2012,06,01,05,55,12.50
2012,06,01,05,56,12.50
2012,06,01,05,57,12.50
2012,06,01,05,58,12.50
2012,06,01,05,59,12.50
2012,06,01,06,00,12.50
2012,06,01,06,01,12.50
2012,06,01,06,02,12.50
2012,06,01,06,03,12.50
2012,06,01,06,04,12.50
2012,06,01,06,05,12.50
2012,06,01,06,06,12.50
2012,06,01,06,07,12.50
2012,06,01,06,08,12.50
2012,06,01,06,09,12.50
2012,06,01,06,10,12.50
2012,06,01,06,11,12.50
2012,06,01,06,12,12.50
2012,06,01,06,13,12.50
2012,06,01,06,14,12.50
2012,06,01,06,15,12.50
2012,06,01,06,16,12.50
2012,06,01,06,17,12.50
2012,06,01,06,18,12.50
2012,06,01,06,19,12.50
2012,06,01,06,20,12.50
2012,06,01,06,21,12.50
2012,06,01,06,22,12.50
2012,06,01,06,23,12.50
2012,06,01,06,24,12.50
2012,06,01,06,25,12.50
2012,06,01,06,26,12.50
2012,06,01,06,27,12.50
2012,06,01,06,28,12.50
2012,06,01,06,29,12.50
2012,06,01,06,30,12.50
2012,06,01,06,31,12.50
2012,06,01,06,32,12.50
2012,06,01,06,33,12.50
2012,06,01,06,34,12.50
2012,06,01,06,35,12.50
2012,06,01,06,36,12.50
2012,06,01,06,37,12.60
2012,06,01,06,38,12.60
2012,06,01,06,39,12.60
2012,06,01,06,40,12.50
2012,06,01,06,41,12.50
2012,06,01,06,42,12.50
2012,06,01,06,43,12.50
2012,06,01,06,44,12.50
2012,06,01,06,45,12.50
2012,06,01,06,46,12.50
2012,06,01,06,47,12.50
2012,06,01,06,48,12.50
2012,06,01,06,49,12.50
2012,06,01,06,50,12.50
2012,06,01,06,51,12.50
2012,06,01,06,52,12.50
2012,06,01,06,53,12.50
2012,06,01,06,54,12.50
2012,06,01,06,55,12.50
2012,06,01,06,56,12.50
2012,06,01,06,57,12.50
2012,06,01,06,58,12.50
2012,06,01,06,59,12.50
2012,06,01,07,00,12.50
2012,06,01,07,01,12.50
2012,06,01,07,02,12.50
2012,06,01,07,03,12.50
2012,06,01,07,04,12.50
2012,06,01,07,05,12.50
2012,06,01,07,06,12.50
2012,06,01,07,07,12.50
2012,06,01,07,08,12.50
2012,06,01,07,09,12.50
2012,06,01,07,10,12.50
2012,06,01,07,11,12.50
2012,06,01,07,12,12.50
2012,06,01,07,13,12.50
2012,06,01,07,14,12.50
2012,06,01,07,15,12.50
2012,06,01,07,16,12.50
2012,06,01,07,17,12.50
2012,06,01,07,18,12.50
2012,06,01,07,19,12.50
2012,06,01,07,20,12.50
2012,06,01,07,21,12.50
2012,06,01,07,22,12.50
2012,06,01,07,23,12.50
2012,06,01,07,24,12.50
2012,06,01,07,25,12.50
2012,06,01,07,26,12.50
2012,06,01,07,27,12.50
2012,06,01,07,28,12.50
2012,06,01,07,29,12.50
2012,06,01,07,30,12.50
2012,06,01,07,31,12.50
2012,06,01,07,32,12.50
2012,06,01,07,33,12.50
2012,06,01,07,34,12.60
2012,06,01,07,35,12.60
2012,06,01,07,36,12.60
2012,06,01,07,37,12.60
2012,06,01,07,38,12.60
2012,06,01,07,39,12.60
2012,06,01,07,40,12.60
2012,06,01,07,41,12.60
2012,06,01,07,42,12.60
2012,06,01,07,43,12.60
2012,06,01,07,44,12.70
2012,06,01,07,45,12.70
2012,06,01,07,46,12.70
2012,06,01,07,47,12.70
2012,06,01,07,48,12.70
2012,06,01,07,49,12.70
2012,06,01,07,50,12.70
2012,06,01,07,51,12.70
2012,06,01,07,52,12.70
2012,06,01,07,53,12.70
2012,06,01,07,54,12.70
2012,06,01,07,55,12.70
2012,06,01,07,56,12.70
2012,06,01,07,57,12.70
2012,06,01,07,58,12.70
2012,06,01,07,59,12.70
2012,06,01,08,00,12.70
2012,06,01,08,01,12.70
2012,06,01,08,02,12.70
2012,06,01,08,03,12.70
2012,06,01,08,04,12.70
2012,06,01,08,05,12.70
2012,06,01,08,06,12.70
2012,06,01,08,07,12.70
2012,06,01,08,08,12.70
2012,06,01,08,09,12.70
2012,06,01,08,10,12.70
2012,06,01,08,11,12.80
2012,06,01,08,12,12.80
2012,06,01,08,13,12.80
2012,06,01,08,14,12.80
2012,06,01,08,15,12.80
2012,06,01,08,16,12.80
2012,06,01,08,17,12.80
2012,06,01,08,18,12.80
2012,06,01,08,19,12.90
2012,06,01,08,20,12.90
2012,06,01,08,21,12.90
2012,06,01,08,22,13.00
2012,06,01,08,23,13.00
2012,06,01,08,24,13.00
2012,06,01,08,25,13.10
2012,06,01,08,26,13.10
2012,06,01,08,27,13.20
2012,06,01,08,28,13.20
2012,06,01,08,29,13.20
2012,06,01,08,30,13.30
2012,06,01,08,31,13.30
2012,06,01,08,32,13.30
2012,06,01,08,33,13.30
2012,06,01,08,34,13.30
2012,06,01,08,35,13.30
2012,06,01,08,36,13.40
2012,06,01,08,37,13.40
2012,06,01,08,38,13.40
2012,06,01,08,39,13.50
2012,06,01,08,40,13.50
2012,06,01,08,41,13.50
2012,06,01,08,42,13.50
2012,06,01,08,43,13.50
2012,06,01,08,44,13.60
2012,06,01,08,45,13.60
2012,06,01,08,46,13.60
2012,06,01,08,47,13.60
2012,06,01,08,48,13.70
2012,06,01,08,49,13.70
2012,06,01,08,50,13.70
2012,06,01,08,51,13.70
2012,06,01,08,52,13.70
2012,06,01,08,53,13.70
2012,06,01,08,54,13.70
2012,06,01,08,55,13.70
2012,06,01,08,56,13.60
2012,06,01,08,57,13.60
2012,06,01,08,58,13.60
2012,06,01,08,59,13.60
2012,06,01,09,00,13.70
2012,06,01,09,01,13.70
2012,06,01,09,02,13.70
2012,06,01,09,03,13.70
2012,06,01,09,04,13.70
2012,06,01,09,05,13.70
2012,06,01,09,06,13.70
2012,06,01,09,07,13.70
2012,06,01,09,08,13.70
2012,06,01,09,09,13.70
2012,06,01,09,10,13.70
2012,06,01,09,11,13.70
2012,06,01,09,12,13.70
2012,06,01,09,13,13.70
2012,06,01,09,14,13.70
2012,06,01,09,15,13.80
2012,06,01,09,16,13.80
2012,06,01,09,17,13.80
2012,06,01,09,18,13.90
2012,06,01,09,19,13.90
2012,06,01,09,20,13.90
2012,06,01,09,21,13.90
2012,06,01,09,22,14.00
2012,06,01,09,23,14.00
2012,06,01,09,24,14.00
2012,06,01,09,25,13.90
2012,06,01,09,26,14.00
2012,06,01,09,27,14.00
2012,06,01,09,28,14.00
2012,06,01,09,29,14.00
2012,06,01,09,30,14.00
2012,06,01,09,31,14.10
2012,06,01,09,32,14.10
2012,06,01,09,33,14.10
2012,06,01,09,34,14.20
2012,06,01,09,35,14.20
2012,06,01,09,36,14.20
2012,06,01,09,37,14.20
2012,06,01,09,38,14.20
2012,06,01,09,39,14.20
2012,06,01,09,40,14.20
2012,06,01,09,41,14.20
2012,06,01,09,42,14.20
2012,06,01,09,43,14.20
2012,06,01,09,44,14.20
2012,06,01,09,45,14.20
2012,06,01,09,46,14.30
2012,06,01,09,47,14.30
2012,06,01,09,48,14.30
2012,06,01,09,49,14.20
2012,06,01,09,50,14.20
2012,06,01,09,51,14.20
2012,06,01,09,52,14.20
2012,06,01,09,53,14.20
2012,06,01,09,54,14.20
2012,06,01,09,55,14.20
2012,06,01,09,56,14.20
2012,06,01,09,57,14.20
2012,06,01,09,58,14.20
2012,06,01,09,59,14.20
2012,06,01,10,00,14.20
2012,06,01,10,01,14.20
2012,06,01,10,02,14.20
2012,06,01,10,03,14.20
2012,06,01,10,04,14.20
2012,06,01,10,05,14.20
2012,06,01,10,06,14.20
2012,06,01,10,07,14.20
2012,06,01,10,08,14.20
2012,06,01,10,09,14.20
2012,06,01,10,10,14.20
2012,06,01,10,11,14.20
2012,06,01,10,12,14.20
2012,06,01,10,13,14.20
2012,06,01,10,14,14.20
2012,06,01,10,15,14.20
2012,06,01,10,16,14.20
2012,06,01,10,17,14.20
2012,06,01,10,18,14.20
2012,06,01,10,19,14.30
2012,06,01,10,20,14.30
2012,06,01,10,21,14.30
2012,06,01,10,22,14.30
2012,06,01,10,23,14.40
2012,06,01,10,24,14.40
2012,06,01,10,25,14.40
2012,06,01,10,26,14.40
2012,06,01,10,27,14.40
2012,06,01,10,28,14.40
2012,06,01,10,29,14.40
2012,06,01,10,30,14.50
2012,06,01,10,31,14.50
2012,06,01,10,32,14.50
2012,06,01,10,33,14.50
2012,06,01,10,34,14.50
2012,06,01,10,35,14.50
2012,06,01,10,36,14.60
2012,06,01,10,37,14.50
2012,06,01,10,38,14.50
2012,06,01,10,39,14.50
2012,06,01,10,40,14.50
2012,06,01,10,41,14.50
2012,06,01,10,42,14.50
2012,06,01,10,43,14.60
2012,06,01,10,44,14.60
2012,06,01,10,45,14.60
2012,06,01,10,46,14.60
2012,06,01,10,47,14.60
2012,06,01,10,48,14.70
2012,06,01,10,49,14.70
2012,06,01,10,50,14.70
2012,06,01,10,51,14.70
2012,06,01,10,52,14.80
2012,06,01,10,53,14.80
2012,06,01,10,54,14.90
2012,06,01,10,55,15.00
2012,06,01,10,56,15.00
2012,06,01,10,57,14.90
2012,06,01,10,58,15.00
2012,06,01,10,59,15.00
2012,06,01,11,00,15.10
2012,06,01,11,01,15.10
2012,06,01,11,02,15.20
2012,06,01,11,03,15.20
2012,06,01,11,04,15.20
2012,06,01,11,05,15.20
2012,06,01,11,06,15.30
2012,06,01,11,07,15.30
2012,06,01,11,08,15.30
2012,06,01,11,09,15.30
2012,06,01,11,10,15.30
2012,06,01,11,11,15.30
2012,06,01,11,12,15.30
2012,06,01,11,13,15.30
2012,06,01,11,14,15.30
2012,06,01,11,15,15.30
2012,06,01,11,16,15.30
2012,06,01,11,17,15.30
2012,06,01,11,18,15.30
2012,06,01,11,19,15.30
2012,06,01,11,20,15.30
2012,06,01,11,21,15.30
2012,06,01,11,22,15.30
2012,06,01,11,23,15.30
2012,06,01,11,24,15.30
2012,06,01,11,25,15.30
2012,06,01,11,26,15.30
2012,06,01,11,27,15.30
2012,06,01,11,28,15.30
2012,06,01,11,29,15.30
2012,06,01,11,30,15.30
2012,06,01,11,31,15.40
2012,06,01,11,32,15.40
2012,06,01,11,33,15.40
2012,06,01,11,34,15.50
2012,06,01,11,35,15.50
2012,06,01,11,36,15.50
2012,06,01,11,37,15.60
2012,06,01,11,38,15.60
2012,06,01,11,39,15.60
2012,06,01,11,40,15.60
2012,06,01,11,41,15.60
2012,06,01,11,42,15.60
2012,06,01,11,43,15.50
2012,06,01,11,44,15.40
2012,06,01,11,45,15.40
2012,06,01,11,46,15.40
2012,06,01,11,47,15.40
2012,06,01,11,48,15.40
2012,06,01,11,49,15.40
2012,06,01,11,50,15.50
2012,06,01,11,51,15.50
2012,06,01,11,52,15.50
2012,06,01,11,53,15.50
2012,06,01,11,54,15.50
2012,06,01,11,55,15.50
2012,06,01,11,56,15.60
2012,06,01,11,57,15.60
2012,06,01,11,58,15.60
2012,06,01,11,59,15.60
2012,06,01,12,00,15.60
2012,06,01,12,01,15.60
2012,06,01,12,02,15.60
2012,06,01,12,03,15.60
2012,06,01,12,04,15.60
2012,06,01,12,05,15.60
2012,06,01,12,06,15.60
2012,06,01,12,07,15.60
2012,06,01,12,08,15.60
2012,06,01,12,09,15.70
2012,06,01,12,10,15.70
2012,06,01,12,11,15.70
2012,06,01,12,12,15.80
2012,06,01,12,13,15.80
2012,06,01,12,14,15.80
2012,06,01,12,15,15.80
2012,06,01,12,16,15.80
2012,06,01,12,17,15.90
2012,06,01,12,18,16.00
2012,06,01,12,19,16.10
2012,06,01,12,20,16.10
2012,06,01,12,21,16.10
2012,06,01,12,22,16.10
2012,06,01,12,23,16.20
2012,06,01,12,24,16.20
2012,06,01,12,25,16.20
2012,06,01,12,26,16.30
2012,06,01,12,27,16.30
2012,06,01,12,28,16.30
2012,06,01,12,29,16.30
2012,06,01,12,30,16.40
2012,06,01,12,31,16.30
2012,06,01,12,32,16.30
2012,06,01,12,33,16.20
2012,06,01,12,34,16.20
2012,06,01,12,35,16.10
2012,06,01,12,36,16.10
2012,06,01,12,37,16.00
2012,06,01,12,38,15.90
2012,06,01,12,39,15.90
2012,06,01,12,40,15.90
2012,06,01,12,41,15.90
2012,06,01,12,42,15.80
2012,06,01,12,43,15.80
2012,06,01,12,44,15.90
2012,06,01,12,45,15.90
2012,06,01,12,46,15.80
2012,06,01,12,47,15.80
2012,06,01,12,48,15.80
2012,06,01,12,49,15.80
2012,06,01,12,50,15.80
2012,06,01,12,51,15.80
2012,06,01,12,52,15.90
2012,06,01,12,53,15.90
2012,06,01,12,54,15.90
2012,06,01,12,55,15.90
2012,06,01,12,56,16.00
2012,06,01,12,57,16.10
2012,06,01,12,58,16.10
2012,06,01,12,59,16.10
2012,06,01,13,00,16.20
2012,06,01,13,01,16.30
2012,06,01,13,02,16.30
2012,06,01,13,03,16.40
2012,06,01,13,04,16.40
2012,06,01,13,05,16.40
2012,06,01,13,06,16.50
2012,06,01,13,07,16.60
2012,06,01,13,08,16.60
2012,06,01,13,09,16.70
2012,06,01,13,10,16.70
2012,06,01,13,11,16.80
2012,06,01,13,12,16.80
2012,06,01,13,13,16.90
2012,06,01,13,14,17.00
2012,06,01,13,15,17.10
2012,06,01,13,16,17.20
2012,06,01,13,17,17.30
2012,06,01,13,18,17.50
2012,06,01,13,19,17.60
2012,06,01,13,20,17.80
2012,06,01,13,21,18.00
2012,06,01,13,22,18.20
2012,06,01,13,23,18.30
2012,06,01,13,24,18.40
2012,06,01,13,25,18.50
2012,06,01,13,26,18.60
2012,06,01,13,27,18.70
2012,06,01,13,28,18.80
2012,06,01,13,29,18.90
2012,06,01,13,30,18.90
2012,06,01,13,31,19.00
2012,06,01,13,32,19.10
2012,06,01,13,33,19.10
2012,06,01,13,34,19.30
2012,06,01,13,35,19.30
2012,06,01,13,36,19.40
2012,06,01,13,37,19.50
2012,06,01,13,38,19.60
2012,06,01,13,39,19.70
2012,06,01,13,40,19.70
2012,06,01,13,41,19.80
2012,06,01,13,42,19.90
2012,06,01,13,43,20.00
2012,06,01,13,44,20.10
2012,06,01,13,45,20.10
2012,06,01,13,46,20.10
2012,06,01,13,47,20.10
2012,06,01,13,48,20.10
2012,06,01,13,49,20.10
2012,06,01,13,50,20.10
2012,06,01,13,51,20.00
2012,06,01,13,52,19.90
2012,06,01,13,53,19.90
2012,06,01,13,54,19.90
2012,06,01,13,55,19.90
2012,06,01,13,56,19.90
2012,06,01,13,57,20.00
2012,06,01,13,58,20.10
2012,06,01,13,59,20.10
2012,06,01,14,00,20.00
2012,06,01,14,01,19.90
2012,06,01,14,02,19.90
2012,06,01,14,03,19.70
2012,06,01,14,04,19.70
2012,06,01,14,05,19.70
2012,06,01,14,06,19.70
2012,06,01,14,07,19.70
2012,06,01,14,08,19.70
2012,06,01,14,09,19.70
2012,06,01,14,10,19.80
2012,06,01,14,11,19.90
2012,06,01,14,12,19.90
2012,06,01,14,13,19.90
2012,06,01,14,14,19.90
2012,06,01,14,15,19.90
2012,06,01,14,16,19.80
2012,06,01,14,17,19.80
2012,06,01,14,18,19.90
2012,06,01,14,19,19.90
2012,06,01,14,20,19.90
2012,06,01,14,21,20.00
2012,06,01,14,22,20.10
2012,06,01,14,23,20.10
2012,06,01,14,24,20.10
2012,06,01,14,25,20.10
2012,06,01,14,26,20.10
2012,06,01,14,27,20.10
2012,06,01,14,28,20.10
2012,06,01,14,29,20.10
2012,06,01,14,30,20.10
2012,06,01,14,31,20.10
2012,06,01,14,32,20.10
2012,06,01,14,33,20.00
2012,06,01,14,34,19.90
2012,06,01,14,35,19.90
2012,06,01,14,36,19.90
2012,06,01,14,37,19.90
2012,06,01,14,38,20.00
2012,06,01,14,39,20.10
2012,06,01,14,40,20.20
2012,06,01,14,41,20.30
2012,06,01,14,42,20.30
2012,06,01,14,43,20.30
2012,06,01,14,44,20.30
2012,06,01,14,45,20.30
2012,06,01,14,46,20.30
2012,06,01,14,47,20.30
2012,06,01,14,48,20.40
2012,06,01,14,49,20.40
2012,06,01,14,50,20.40
2012,06,01,14,51,20.20
2012,06,01,14,52,20.20
2012,06,01,14,53,20.20
2012,06,01,14,54,20.20
2012,06,01,14,55,20.20
2012,06,01,14,56,20.20
2012,06,01,14,57,20.20
2012,06,01,14,58,20.20
2012,06,01,14,59,20.20
2012,06,01,15,00,20.30
2012,06,01,15,01,20.30
2012,06,01,15,02,20.40
2012,06,01,15,03,20.40
2012,06,01,15,04,20.50
2012,06,01,15,05,20.50
2012,06,01,15,06,20.50
2012,06,01,15,07,20.50
2012,06,01,15,08,20.60
2012,06,01,15,09,20.60
2012,06,01,15,10,20.50
2012,06,01,15,11,20.40
2012,06,01,15,12,20.40
2012,06,01,15,13,20.30
2012,06,01,15,14,20.20
2012,06,01,15,15,20.20
2012,06,01,15,16,20.20
2012,06,01,15,17,20.20
2012,06,01,15,18,20.20
2012,06,01,15,19,20.20
2012,06,01,15,20,20.20
2012,06,01,15,21,20.20
2012,06,01,15,22,20.10
2012,06,01,15,23,20.10
2012,06,01,15,24,20.00
2012,06,01,15,25,20.00
2012,06,01,15,26,19.90
2012,06,01,15,27,19.90
2012,06,01,15,28,19.90
2012,06,01,15,29,19.80
2012,06,01,15,30,19.80
2012,06,01,15,31,19.80
2012,06,01,15,32,19.80
2012,06,01,15,33,19.90
2012,06,01,15,34,19.90
2012,06,01,15,35,19.90
2012,06,01,15,36,19.90
2012,06,01,15,37,19.90
2012,06,01,15,38,19.90
2012,06,01,15,39,19.90
2012,06,01,15,40,19.80
2012,06,01,15,41,19.80
2012,06,01,15,42,19.80
2012,06,01,15,43,19.70
2012,06,01,15,44,19.70
2012,06,01,15,45,19.60
2012,06,01,15,46,19.60
2012,06,01,15,47,19.60
2012,06,01,15,48,19.60
2012,06,01,15,49,19.60
2012,06,01,15,50,19.60
2012,06,01,15,51,19.60
2012,06,01,15,52,19.60
2012,06,01,15,53,19.50
2012,06,01,15,54,19.50
2012,06,01,15,55,19.50
2012,06,01,15,56,19.50
2012,06,01,15,57,19.50
2012,06,01,15,58,19.50
2012,06,01,15,59,19.40
2012,06,01,16,00,19.40
2012,06,01,16,01,19.40
2012,06,01,16,02,19.40
2012,06,01,16,03,19.40
2012,06,01,16,04,19.40
2012,06,01,16,05,19.40
2012,06,01,16,06,19.30
2012,06,01,16,07,19.30
2012,06,01,16,08,19.30
2012,06,01,16,09,19.20
2012,06,01,16,10,19.20
2012,06,01,16,11,19.20
2012,06,01,16,12,19.30
2012,06,01,16,13,19.30
2012,06,01,16,14,19.40
2012,06,01,16,15,19.40
2012,06,01,16,16,19.50
2012,06,01,16,17,19.50
2012,06,01,16,18,19.60
2012,06,01,16,19,19.60
2012,06,01,16,20,19.70
2012,06,01,16,21,19.70
2012,06,01,16,22,19.70
2012,06,01,16,23,19.70
2012,06,01,16,24,19.70
2012,06,01,16,25,19.70
2012,06,01,16,26,19.70
2012,06,01,16,27,19.70
2012,06,01,16,28,19.80
2012,06,01,16,29,19.80
2012,06,01,16,30,19.80
2012,06,01,16,31,19.70
2012,06,01,16,32,19.70
2012,06,01,16,33,19.60
2012,06,01,16,34,19.60
2012,06,01,16,35,19.50
2012,06,01,16,36,19.40
2012,06,01,16,37,19.40
2012,06,01,16,38,19.40
2012,06,01,16,39,19.40
2012,06,01,16,40,19.40
2012,06,01,16,41,19.30
2012,06,01,16,42,19.30
2012,06,01,16,43,19.30
2012,06,01,16,44,19.20
2012,06,01,16,45,19.10
2012,06,01,16,46,19.10
2012,06,01,16,47,19.10
2012,06,01,16,48,19.10
2012,06,01,16,49,19.10
2012,06,01,16,50,19.00
2012,06,01,16,51,18.90
2012,06,01,16,52,18.90
2012,06,01,16,53,18.90
2012,06,01,16,54,18.80
2012,06,01,16,55,18.70
2012,06,01,16,56,18.70
2012,06,01,16,57,18.70
2012,06,01,16,58,18.60
2012,06,01,16,59,18.70
2012,06,01,17,00,18.60
2012,06,01,17,01,18.50
2012,06,01,17,02,18.50
2012,06,01,17,03,18.40
2012,06,01,17,04,18.30
2012,06,01,17,05,18.20
2012,06,01,17,06,18.10
2012,06,01,17,07,18.10
2012,06,01,17,08,18.00
2012,06,01,17,09,17.90
2012,06,01,17,10,17.90
2012,06,01,17,11,17.90
2012,06,01,17,12,17.90
2012,06,01,17,13,17.90
2012,06,01,17,14,17.90
2012,06,01,17,15,17.80
2012,06,01,17,16,17.80
2012,06,01,17,17,17.80
2012,06,01,17,18,17.80
2012,06,01,17,19,17.80